Regional Weather Roundup
Issued by NWS

Home | Current Version | Previous Version | Graphics & Text | Print | Product List | Glossary Off
Versions: 1 2 3 4 5 6 7 8 9 10 11 12 13 14 15 16 17 18 19 20 21 22 23 24 25 26 27 28 29 30 31 32 33 34 35 36 37 38 39 40 41 42 43 44 45 46 47 48 49 50

000
ASUS43 KFSD 170902
RWRSD

WEATHER ROUNDUP FOR SOUTH DAKOTA
NATIONAL WEATHER SERVICE SIOUX FALLS SD
400 AM CDT TUE OCT 17 2017

NOTE: "FAIR" INDICATES FEW OR NO CLOUDS BELOW 12,000 FEET WITH NO
SIGNIFICANT WEATHER AND/OR OBSTRUCTIONS TO VISIBILITY.


SDZ001>005-009-010-012>017-171000-
NORTHWEST AND NORTH CENTRAL SOUTH DAKOTA

CITY           SKY/WX    TMP DP  RH WIND       PRES   REMARKS
BUFFALO          N/A     48  26  42 W9        29.96F
FAITH            N/A     46  29  51 SW10      30.02F
MOBRIDGE       CLEAR     40  35  83 E3        29.97F
$$

SDZ012>016-024>037-041>051-057-063-072>074-171000-
SOUTHWEST AND SOUTH CENTRAL SOUTH DAKOTA

CITY           SKY/WX    TMP DP  RH WIND       PRES   REMARKS
RAPID CTY ARPT CLEAR     45  27  49 W9        30.08F
PIERRE         CLEAR     42  34  73 SW5       30.02S
CUSTER         CLOUDY    35  19  52 W6        30.19F
ELLSWORTH AFB  CLEAR     46  25  43 W8        30.07F
PHILIP         CLEAR     41  35  79 W9        30.04F
PINE RIDGE     CLEAR     31  28  89 CALM      30.12F
SPEARFISH      FAIR      48  23  37 CALM      30.10F
WINNER         FAIR      48  35  60 SW7       30.06F
$$

SDZ004>011-016>023-039-040-171000-
NORTHEAST SOUTH DAKOTA

CITY           SKY/WX    TMP DP  RH WIND       PRES   REMARKS
ABERDEEN       CLOUDY    35  33  92 S5        30.00R
WATERTOWN      CLEAR     39  38  96 CALM      29.99F
BROOKINGS      CLEAR     41  37  86 CALM      30.01F
SISSETON         N/A     46  38  73 SW5       29.95S
$$

SDZ017-020-022-023-036>040-048>070-171000-
SOUTHEAST SOUTH DAKOTA

CITY           SKY/WX    TMP DP  RH WIND       PRES   REMARKS
SIOUX FALLS    CLEAR     40  38  93 CALM      30.04R
HURON          CLEAR     40  39  97 CALM      30.02S
MITCHELL       CLEAR     48  39  71 W5        30.03S
YANKTON        CLEAR     43  38  82 CALM      30.04R
$$

ABBREVIATIONS USED IN REMARKS
   TC - TEMPERATURE IN CELSIUS
  WCI - WIND CHILL INDEX
   HX - HEAT INDEX
  VSB - VISIBILITY




USA.gov is the U.S. government's official web portal to all federal, state and local government web resources and services.